Regional Weather Roundup
Issued by NWS

Home | Current Version | Previous Version | Text Only | Print | Product List | Glossary On
Versions: 1 2 3 4 5 6 7 8 9 10 11 12 13 14 15 16 17 18 19 20 21 22 23 24 25 26 27 28 29 30 31 32 33 34 35 36 37 38 39 40 41 42 43 44 45 46 47 48 49 50
000
ASUS45 KBOI 171510
RWRID
WEATHER ROUNDUP FOR IDAHO
NATIONAL WEATHER SERVICE BOISE ID
900 AM MDT WED SEP 17 2014

NOTE: "FAIR" INDICATES FEW OR NO CLOUDS BELOW 12000 FEET
WITH NO SIGNIFICANT WEATHER AND/OR OBSTRUCTIONS TO VISIBILITY

IDZ012-014-171600-
SOUTHWEST IDAHO


CITY           SKY/WX    TMP DP  RH WIND       PRES   REMARKS
BOISE          CLOUDY    70  42  36 CALM      29.86R
CALDWELL       CLOUDY    61  46  59 CALM      29.88R
MOUNTAIN HOME  CLOUDY    67  44  43 E7        29.88R
$$

IDZ016-017-171600-
SOUTHCENTRAL IDAHO


CITY           SKY/WX    TMP DP  RH WIND       PRES   REMARKS
BURLEY         PTSUNNY   61  48  62 E5        29.96R
JEROME         PTSUNNY   64  45  49 NE6       29.95R
TWIN FALLS     PTSUNNY   66  44  45 S5        29.95R
$$

IDZ019>023-171600-
SOUTHEAST IDAHO


CITY           SKY/WX    TMP DP  RH WIND       PRES   REMARKS
IDAHO FALLS    PTSUNNY   57  45  64 E6        30.01F
POCATELLO      MOSUNNY   59  50  72 NE5       30.01R
REXBURG        PTSUNNY   54  44  69 NE5       30.05S
$$

IDZ006-010-011-018-031-032-171600-
CENTRAL IDAHO MOUNTAINS


CITY           SKY/WX    TMP DP  RH WIND       PRES   REMARKS
MCCALL         CLOUDY    53  44  71 CALM      29.98S
HAILEY         MOSUNNY   59  37  44 NW12      30.06R
STANLEY          N/A     42  33  70 CALM      30.16R
SALMON         MOSUNNY   50  45  81 CALM      30.03S
CHALLIS        PTSUNNY   53  43  68 CALM      30.06S
$$

IDZ002-004-006-007-026-171600-
NORTHERN IDAHO


CITY           SKY/WX    TMP DP  RH WIND       PRES   REMARKS
LEWISTON       CLOUDY    62  37  39 CALM      29.82S
LOWELL           N/A     54  51  90 CALM      29.89S
COEUR D`ALENE  MOSUNNY   55  46  71 E6        29.85S
MULLAN PASS    MOSUNNY   60  38  43 S5        30.01S
$$


USA.gov is the U.S. government's official web portal to all federal, state and local government web resources and services.